Location: Étang Rond
(42.7927°N, 1.0661°E)
Time: 22:39:28
(UTC+00:00)

Meteor 2-21 - Pass Details

Date: 08 November 2025
Orbit: 933 x 966 km, 82.5° (Epoch: 12 December)

Event Time Altitude Azimuth Distance (km) Brightness Sun altitude
Rises 04:49:01 0° 198° (SSW) 3,611 7.3 -20.4°
Reaches altitude 10° 04:51:33 10° 202° (SSW) 2,665 6.6 -19.9°
Maximum altitude 04:57:33 59° 281° (WNW) 1,080 4.4 -18.8°
Drops below altitude 10° 05:03:33 10° 1° (N) 2,661 6.7 -17.7°
Sets 05:06:06 0° 5° (N) 3,606 7.5 -17.3°
